| time (UTC) | temp F | wind direction | speed knots | gust knots | rain 1hr in | rain 24hr in | rain mn in | humidity % | barometer mb |
| 20260506201811 | 59 | 254 | 13.0 | 23.5 | 0.00 | 0.00 | 0.00 | 64 | 1006.8 |
| 20260506201311 | 60 | 251 | 13.0 | 26.1 | 0.00 | 0.00 | 0.00 | 64 | 1006.7 |
| 20260506200811 | 60 | 237 | 13.0 | 26.1 | 0.00 | 0.00 | 0.00 | 64 | 1006.7 |
| 20260506200312 | 60 | 256 | 12.2 | 24.3 | 0.00 | 0.00 | 0.00 | 64 | 1006.8 |
| 20260506195806 | 60 | 213 | 12.2 | 20.9 | 0.00 | 0.00 | 0.00 | 64 | 1006.9 |
| 20260506195300 | 59 | 252 | 12.2 | 26.1 | 0.00 | 0.00 | 0.00 | 64 | 1006.9 |
| 20260506194753 | 59 | 249 | 11.3 | 26.1 | 0.00 | 0.00 | 0.00 | 64 | 1006.8 |
| 20260506194247 | 59 | 263 | 12.2 | 20.0 | 0.00 | 0.00 | 0.00 | 64 | 1007.1 |
| 20260506193742 | 60 | 242 | 12.2 | 24.3 | 0.00 | 0.00 | 0.00 | 64 | 1007.2 |
| 20260506193236 | 60 | 232 | 11.3 | 24.3 | 0.00 | 0.00 | 0.00 | 64 | 1007.4 |
| 20260506192729 | 60 | 260 | 11.3 | 22.6 | 0.00 | 0.00 | 0.00 | 65 | 1007.4 |
| 20260506192224 | 59 | 240 | 12.2 | 22.6 | 0.00 | 0.00 | 0.00 | 65 | 1007.5 |
| 20260506191725 | 59 | 239 | 11.3 | 20.9 | 0.00 | 0.00 | 0.00 | 65 | 1007.5 |
| 20260506191225 | 59 | 261 | 11.3 | 21.7 | 0.00 | 0.00 | 0.00 | 65 | 1007.5 |
| 20260506190725 | 59 | 247 | 10.4 | 21.7 | 0.00 | 0.00 | 0.00 | 65 | 1007.6 |
| 20260506190444 | 59 | 215 | 11.3 | 18.2 | 0.00 | 0.00 | 0.00 | 66 | 1007.5 |
| 20260506185726 | 59 | 250 | 12.2 | 25.2 | 0.00 | 0.00 | 0.00 | 66 | 1007.8 |
| 20260506185224 | 59 | 246 | 12.2 | 25.2 | 0.00 | 0.00 | 0.00 | 66 | 1007.6 |
| 20260506184724 | 58 | 233 | 12.2 | 24.3 | 0.00 | 0.00 | 0.00 | 66 | 1007.6 |
| 20260506184225 | 58 | 225 | 13.0 | 23.5 | 0.00 | 0.00 | 0.00 | 66 | 1007.7 |
| 20260506183725 | 58 | 272 | 13.0 | 21.7 | 0.00 | 0.00 | 0.00 | 65 | 1007.9 |
| 20260506183226 | 59 | 218 | 13.9 | 22.6 | 0.00 | 0.00 | 0.00 | 65 | 1007.9 |
| 20260506182721 | 59 | 226 | 13.0 | 22.6 | 0.00 | 0.00 | 0.00 | 65 | 1008.0 |
| 20260506182221 | 59 | 245 | 13.0 | 22.6 | 0.00 | 0.00 | 0.00 | 65 | 1008.2 |
| 20260506181721 | 59 | 256 | 12.2 | 22.6 | 0.00 | 0.00 | 0.00 | 64 | 1008.2 |
| 20260506181221 | 59 | 253 | 11.3 | 22.6 | 0.00 | 0.00 | 0.00 | 64 | 1008.2 |
| 20260506180720 | 59 | 226 | 12.2 | 22.6 | 0.00 | 0.00 | 0.00 | 64 | 1008.4 |
| 20260506180446 | 59 | 214 | 13.9 | 23.5 | 0.00 | 0.00 | 0.00 | 63 | 1008.4 |
| 20260506175721 | 60 | 230 | 13.0 | 23.5 | 0.00 | 0.00 | 0.00 | 63 | 1008.6 |
| 20260506175221 | 60 | 267 | 12.2 | 22.6 | 0.00 | 0.00 | 0.00 | 62 | 1008.7 |
| 20260506174945 | 60 | 240 | 13.9 | 26.1 | 0.00 | 0.00 | 0.00 | 62 | 1008.8 |
| 20260506174219 | 60 | 250 | 15.6 | 26.1 | 0.00 | 0.00 | 0.00 | 61 | 1008.8 |
| 20260506173718 | 60 | 223 | 15.6 | 26.1 | 0.00 | 0.00 | 0.00 | 61 | 1008.8 |
| 20260506173223 | 61 | 213 | 15.6 | 26.9 | 0.00 | 0.00 | 0.00 | 61 | 1008.8 |
| 20260506172719 | 61 | 260 | 14.8 | 26.9 | 0.00 | 0.00 | 0.00 | 61 | 1008.8 |
| 20260506172219 | 61 | 263 | 14.8 | 25.2 | 0.00 | 0.00 | 0.00 | 61 | 1008.8 |
| 20260506171718 | 61 | 263 | 15.6 | 32.2 | 0.00 | 0.00 | 0.00 | 61 | 1008.8 |
| 20260506171704 | 61 | 230 | 14.8 | 32.2 | 0.00 | 0.00 | 0.00 | 61 | 1008.9 |
| 20260506170953 | 61 | 265 | 13.9 | 28.7 | 0.00 | 0.00 | 0.00 | 61 | 1008.8 |
| 20260506170218 | 61 | 227 | 14.8 | 25.2 | 0.00 | 0.00 | 0.00 | 61 | 1009.1 |
| 20260506165719 | 61 | 263 | 15.6 | 25.2 | 0.00 | 0.00 | 0.00 | 61 | 1009.0 |
| 20260506165212 | 61 | 219 | 15.6 | 32.2 | 0.00 | 0.00 | 0.00 | 61 | 1009.2 |
| 20260506164713 | 61 | 259 | 15.6 | 32.2 | 0.00 | 0.00 | 0.00 | 61 | 1009.2 |
| 20260506164212 | 61 | 240 | 16.5 | 28.7 | 0.00 | 0.00 | 0.00 | 61 | 1009.1 |
| 20260506163931 | 61 | 229 | 15.6 | 26.9 | 0.00 | 0.00 | 0.00 | 61 | 1009.0 |
| 20260506163212 | 61 | 294 | 14.8 | 26.1 | 0.00 | 0.00 | 0.00 | 61 | 1009.2 |
| 20260506162710 | 61 | 253 | 14.8 | 26.9 | 0.00 | 0.00 | 0.00 | 61 | 1009.1 |
| 20260506162211 | 61 | 249 | 14.8 | 27.8 | 0.00 | 0.00 | 0.00 | 61 | 1009.2 |
| 20260506161710 | 62 | 246 | 14.8 | 27.8 | 0.00 | 0.00 | 0.00 | 60 | 1009.2 |
| 20260506161208 | 62 | 248 | 15.6 | 26.9 | 0.00 | 0.00 | 0.00 | 60 | 1009.4 |
| 20260506160709 | 62 | 291 | 15.6 | 27.8 | 0.00 | 0.00 | 0.00 | 61 | 1009.5 |
| 20260506160428 | 61 | 233 | 15.6 | 31.3 | 0.00 | 0.00 | 0.00 | 61 | 1009.6 |
| 20260506155709 | 61 | 256 | 15.6 | 31.3 | 0.00 | 0.00 | 0.00 | 61 | 1009.7 |
| 20260506155648 | 61 | 244 | 15.6 | 31.3 | 0.00 | 0.00 | 0.00 | 61 | 1009.7 |
| 20260506154708 | 61 | 242 | 15.6 | 31.3 | 0.00 | 0.00 | 0.00 | 61 | 1009.7 |
| 20260506154208 | 61 | 228 | 15.6 | 26.9 | 0.00 | 0.00 | 0.00 | 61 | 1009.6 |
| 20260506153710 | 61 | 253 | 15.6 | 26.1 | 0.00 | 0.00 | 0.00 | 61 | 1009.7 |
| 20260506153209 | 61 | 261 | 15.6 | 32.2 | 0.00 | 0.00 | 0.00 | 60 | 1009.6 |
| 20260506152703 | 62 | 241 | 15.6 | 32.2 | 0.00 | 0.00 | 0.00 | 60 | 1009.6 |
| 20260506152156 | 62 | 231 | 17.4 | 28.7 | 0.00 | 0.00 | 0.00 | 60 | 1009.5 |
| 20260506151651 | 62 | 260 | 17.4 | 33.9 | 0.00 | 0.00 | 0.00 | 60 | 1009.6 |
| 20260506151145 | 62 | 244 | 15.6 | 28.7 | 0.00 | 0.00 | 0.00 | 59 | 1010.0 |
| 20260506150640 | 63 | 244 | 14.8 | 27.8 | 0.00 | 0.00 | 0.00 | 59 | 1009.5 |
| 20260506150133 | 63 | 244 | 13.9 | 25.2 | 0.00 | 0.00 | 0.00 | 59 | 1009.6 |
| 20260506145627 | 63 | 254 | 14.8 | 27.8 | 0.00 | 0.00 | 0.00 | 59 | 1009.7 |
| 20260506145120 | 63 | 256 | 14.8 | 27.8 | 0.00 | 0.00 | 0.00 | 59 | 1009.7 |
| 20260506144615 | 62 | 242 | 14.8 | 26.1 | 0.00 | 0.00 | 0.00 | 59 | 1009.6 |
| 20260506144109 | 62 | 248 | 13.9 | 32.2 | 0.00 | 0.00 | 0.00 | 60 | 1009.8 |
| 20260506143603 | 62 | 302 | 13.9 | 32.2 | 0.00 | 0.00 | 0.00 | 59 | 1009.7 |
| 20260506143057 | 62 | 240 | 13.9 | 28.7 | 0.00 | 0.00 | 0.00 | 60 | 1010.0 |
| 20260506142550 | 62 | 344 | 13.9 | 28.7 | 0.00 | 0.00 | 0.00 | 60 | 1010.1 |
| 20260506142045 | 62 | 229 | 14.8 | 26.9 | 0.00 | 0.00 | 0.00 | 60 | 1010.1 |
| 20260506141539 | 61 | 233 | 15.6 | 29.5 | 0.00 | 0.00 | 0.00 | 60 | 1010.0 |
| 20260506141032 | 61 | 256 | 15.6 | 29.5 | 0.00 | 0.00 | 0.00 | 60 | 1010.0 |
| 20260506140527 | 61 | 249 | 15.6 | 27.8 | 0.00 | 0.00 | 0.00 | 60 | 1009.9 |
| 20260506140021 | 61 | 217 | 15.6 | 26.9 | 0.00 | 0.00 | 0.00 | 60 | 1009.9 |
| 20260506135515 | 61 | 240 | 15.6 | 27.8 | 0.00 | 0.00 | 0.00 | 60 | 1009.8 |
| 20260506135008 | 61 | 248 | 14.8 | 27.8 | 0.00 | 0.00 | 0.00 | 60 | 1009.8 |
| 20260506134503 | 62 | 241 | 14.8 | 26.1 | 0.00 | 0.00 | 0.00 | 60 | 1009.6 |
| 20260506133958 | 62 | 209 | 14.8 | 26.9 | 0.00 | 0.00 | 0.00 | 60 | 1009.8 |
| 20260506133450 | 61 | 252 | 14.8 | 26.9 | 0.00 | 0.00 | 0.00 | 60 | 1009.9 |
| 20260506132945 | 61 | 225 | 14.8 | 26.1 | 0.00 | 0.00 | 0.00 | 60 | 1009.9 |
| 20260506132707 | 61 | 230 | 12.2 | 21.7 | 0.00 | 0.00 | 0.00 | 61 | 1009.7 |
| 20260506132206 | 61 | 224 | 12.2 | 24.3 | 0.00 | 0.00 | 0.00 | 60 | 1009.6 |
| 20260506131427 | 61 | 259 | 13.0 | 24.3 | 0.00 | 0.00 | 0.00 | 60 | 1009.9 |
| 20260506130921 | 61 | 237 | 13.0 | 24.3 | 0.00 | 0.00 | 0.00 | 60 | 1010.0 |
| 20260506130635 | 61 | 227 | 12.2 | 22.6 | 0.00 | 0.00 | 0.00 | 60 | 1010.1 |
| 20260506130134 | 61 | 262 | 13.0 | 25.2 | 0.00 | 0.00 | 0.00 | 61 | 1010.2 |
| 20260506125403 | 61 | 237 | 13.9 | 27.8 | 0.00 | 0.00 | 0.00 | 61 | 1010.2 |
| 20260506125117 | 61 | 259 | 13.0 | 27.8 | 0.00 | 0.00 | 0.00 | 61 | 1010.0 |
| 20260506124352 | 61 | 255 | 13.0 | 26.1 | 0.00 | 0.00 | 0.00 | 61 | 1010.1 |
| 20260506123845 | 61 | 239 | 13.0 | 26.1 | 0.00 | 0.00 | 0.00 | 61 | 1010.1 |
| 20260506123339 | 61 | 264 | 12.2 | 24.3 | 0.00 | 0.00 | 0.00 | 61 | 1010.2 |
| 20260506123055 | 61 | 244 | 13.0 | 23.5 | 0.00 | 0.00 | 0.00 | 62 | 1010.2 |
| 20260506122327 | 60 | 245 | 13.9 | 26.9 | 0.00 | 0.00 | 0.00 | 62 | 1010.1 |
| 20260506121821 | 60 | 259 | 13.0 | 26.9 | 0.00 | 0.00 | 0.00 | 62 | 1009.9 |
| 20260506121315 | 60 | 273 | 13.9 | 26.1 | 0.00 | 0.00 | 0.00 | 63 | 1010.0 |
| 20260506120809 | 60 | 259 | 14.8 | 26.1 | 0.00 | 0.00 | 0.00 | 63 | 1010.1 |
| 20260506120303 | 60 | 232 | 13.9 | 24.3 | 0.00 | 0.00 | 0.00 | 63 | 1010.1 |
| 20260506115759 | 60 | 221 | 13.9 | 26.9 | 0.00 | 0.00 | 0.00 | 63 | 1010.1 |
| 20260506115251 | 60 | 238 | 13.9 | 26.9 | 0.00 | 0.00 | 0.00 | 63 | 1010.1 |
| 20260506114746 | 59 | 246 | 13.0 | 26.9 | 0.00 | 0.00 | 0.00 | 63 | 1010.0 |
| 20260506114239 | 59 | 256 | 13.0 | 26.9 | 0.00 | 0.00 | 0.00 | 64 | 1010.1 |
| 20260506113734 | 59 | 207 | 12.2 | 25.2 | 0.00 | 0.00 | 0.00 | 64 | 1010.1 |
| 20260506113227 | 59 | 266 | 12.2 | 25.2 | 0.00 | 0.00 | 0.00 | 64 | 1010.0 |
| 20260506112948 | 59 | 245 | 12.2 | 21.7 | 0.00 | 0.00 | 0.00 | 64 | 1010.2 |
| 20260506112215 | 59 | 250 | 12.2 | 20.9 | 0.00 | 0.00 | 0.00 | 64 | 1010.2 |
| 20260506111933 | 59 | 237 | 13.0 | 21.7 | 0.00 | 0.00 | 0.00 | 64 | 1010.1 |
| 20260506111428 | 59 | 245 | 13.0 | 22.6 | 0.00 | 0.00 | 0.00 | 64 | 1010.2 |
| 20260506110657 | 58 | 263 | 13.0 | 22.6 | 0.00 | 0.00 | 0.00 | 65 | 1010.2 |
| 20260506110157 | 58 | 246 | 13.9 | 24.3 | 0.00 | 0.00 | 0.00 | 65 | 1010.1 |
| 20260506105658 | 58 | 248 | 13.9 | 24.3 | 0.00 | 0.00 | 0.00 | 65 | 1010.1 |
| 20260506105157 | 58 | 234 | 13.0 | 22.6 | 0.00 | 0.00 | 0.00 | 65 | 1010.2 |
| 20260506104654 | 58 | 242 | 13.0 | 24.3 | 0.00 | 0.00 | 0.00 | 65 | 1010.1 |
| 20260506104153 | 58 | 252 | 13.9 | 24.3 | 0.00 | 0.00 | 0.00 | 65 | 1010.1 |
| 20260506103655 | 58 | 244 | 12.2 | 23.5 | 0.00 | 0.00 | 0.00 | 65 | 1010.2 |
| 20260506103154 | 58 | 249 | 13.0 | 23.5 | 0.00 | 0.00 | 0.00 | 65 | 1010.1 |
| 20260506102653 | 58 | 241 | 13.0 | 24.3 | 0.00 | 0.00 | 0.00 | 65 | 1010.0 |
| 20260506102154 | 58 | 235 | 13.9 | 26.9 | 0.00 | 0.00 | 0.00 | 65 | 1010.0 |
| 20260506101653 | 58 | 228 | 14.8 | 26.9 | 0.00 | 0.00 | 0.00 | 65 | 1009.8 |
| 20260506101154 | 58 | 257 | 13.9 | 23.5 | 0.00 | 0.00 | 0.00 | 65 | 1009.8 |
| 20260506100915 | 58 | 287 | 12.2 | 24.3 | 0.00 | 0.00 | 0.00 | 65 | 1009.9 |
| 20260506100154 | 58 | 248 | 13.0 | 26.9 | 0.00 | 0.00 | 0.00 | 65 | 1009.8 |
| 20260506095914 | 58 | 237 | 13.0 | 27.8 | 0.00 | 0.00 | 0.00 | 65 | 1009.8 |
| 20260506095153 | 58 | 232 | 13.9 | 27.8 | 0.00 | 0.00 | 0.00 | 65 | 1009.8 |
| 20260506094654 | 58 | 256 | 14.8 | 26.9 | 0.00 | 0.00 | 0.00 | 65 | 1009.8 |
| 20260506094155 | 58 | 250 | 14.8 | 26.1 | 0.00 | 0.00 | 0.00 | 65 | 1009.9 |
| 20260506093651 | 58 | 273 | 13.9 | 26.9 | 0.00 | 0.00 | 0.00 | 65 | 1009.8 |
| 20260506093153 | 58 | 249 | 13.0 | 26.9 | 0.00 | 0.00 | 0.00 | 65 | 1009.9 |
| 20260506092651 | 58 | 267 | 13.0 | 20.9 | 0.00 | 0.00 | 0.00 | 65 | 1009.9 |
| 20260506092152 | 58 | 243 | 13.9 | 26.9 | 0.00 | 0.00 | 0.00 | 65 | 1009.8 |
| 20260506091651 | 58 | 237 | 14.8 | 26.9 | 0.00 | 0.00 | 0.00 | 65 | 1009.9 |
| 20260506091634 | 59 | 229 | 14.8 | 25.2 | 0.00 | 0.00 | 0.00 | 65 | 1009.9 |
| 20260506090652 | 59 | 250 | 14.8 | 25.2 | 0.00 | 0.00 | 0.00 | 65 | 1010.0 |
| 20260506090151 | 59 | 257 | 14.8 | 25.2 | 0.00 | 0.00 | 0.00 | 65 | 1010.0 |
| 20260506085651 | 59 | 241 | 14.8 | 24.3 | 0.00 | 0.00 | 0.00 | 65 | 1010.1 |
| 20260506085413 | 59 | 252 | 13.9 | 25.2 | 0.00 | 0.00 | 0.00 | 65 | 1010.1 |
| 20260506084648 | 59 | 233 | 14.8 | 25.2 | 0.00 | 0.00 | 0.00 | 65 | 1010.1 |
| 20260506084415 | 59 | 210 | 13.9 | 23.5 | 0.00 | 0.00 | 0.00 | 65 | 1010.2 |
| 20260506083917 | 59 | 263 | 13.9 | 27.8 | 0.00 | 0.00 | 0.00 | 65 | 1010.2 |
| 20260506083149 | 59 | 263 | 13.9 | 27.8 | 0.00 | 0.00 | 0.00 | 65 | 1010.1 |
| 20260506082648 | 59 | 229 | 13.0 | 26.1 | 0.00 | 0.00 | 0.00 | 65 | 1010.2 |
| 20260506082147 | 59 | 263 | 13.9 | 25.2 | 0.00 | 0.00 | 0.00 | 65 | 1010.1 |
| 20260506081648 | 59 | 220 | 15.6 | 25.2 | 0.00 | 0.00 | 0.00 | 65 | 1010.2 |
| 20260506081148 | 59 | 230 | 14.8 | 26.1 | 0.00 | 0.00 | 0.00 | 64 | 1010.2 |
| 20260506080649 | 59 | 148 | 14.8 | 26.1 | 0.00 | 0.00 | 0.00 | 64 | 1010.2 |
| 20260506080143 | 59 | 240 | 13.9 | 26.1 | 0.00 | 0.00 | 0.00 | 64 | 1010.2 |
| 20260506073144 | 59 | 247 | 13.9 | 26.1 | 0.00 | 0.00 | 0.00 | 64 | 1010.4 |
| 20260506072646 | 59 | 290 | 13.9 | 25.2 | 0.00 | 0.00 | 0.00 | 64 | 1010.4 |
| 20260506072144 | 60 | 223 | 13.9 | 24.3 | 0.00 | 0.00 | 0.00 | 63 | 1010.3 |
| 20260506071645 | 60 | 204 | 14.8 | 26.9 | 0.00 | 0.00 | 0.00 | 63 | 1010.4 |
| 20260506071410 | 60 | 259 | 14.8 | 26.9 | 0.00 | 0.00 | 0.00 | 63 | 1010.4 |
| 20260506070636 | 60 | 229 | 13.9 | 26.1 | 0.00 | 0.00 | 0.00 | 63 | 1010.3 |
| 20260506070131 | 60 | 251 | 14.8 | 26.1 | 0.00 | 0.00 | 0.00 | 64 | 1010.3 |
| 20260506062122 | 60 | 247 | 13.0 | 29.5 | 0.00 | 0.00 | 0.00 | 64 | 1010.4 |
| 20260506061621 | 59 | 279 | 13.0 | 25.2 | 0.00 | 0.00 | 0.00 | 64 | 1010.3 |
| 20260506061121 | 60 | 263 | 14.8 | 27.8 | 0.00 | 0.00 | 0.00 | 63 | 1010.4 |
| 20260506060621 | 60 | 256 | 14.8 | 27.8 | 0.00 | 0.00 | 0.00 | 63 | 1010.4 |
| 20260506060123 | 60 | 265 | 15.6 | 26.9 | 0.00 | 0.00 | 0.00 | 63 | 1010.4 |
| 20260506051052 | 60 | 259 | 14.8 | 29.5 | 0.00 | 0.00 | 0.00 | 63 | 1010.7 |
| 20260506050546 | 60 | 247 | 14.8 | 26.9 | 0.00 | 0.00 | 0.00 | 63 | 1010.7 |
| 20260506044534 | 60 | 296 | 13.9 | 29.5 | 0.00 | 0.00 | 0.00 | 63 | 1010.8 |
| 20260506044034 | 60 | 217 | 13.0 | 24.3 | 0.00 | 0.00 | 0.00 | 63 | 1010.8 |
| 20260506043534 | 60 | 256 | 13.9 | 26.1 | 0.00 | 0.00 | 0.00 | 63 | 1010.8 |
| 20260506043300 | 60 | 244 | 13.9 | 26.1 | 0.00 | 0.00 | 0.00 | 63 | 1010.9 |
| 20260506042753 | 60 | 263 | 13.9 | 26.1 | 0.00 | 0.00 | 0.00 | 63 | 1011.0 |
| 20260506042031 | 60 | 265 | 15.6 | 27.8 | 0.00 | 0.00 | 0.00 | 63 | 1010.8 |
| 20260506041531 | 60 | 268 | 15.6 | 27.8 | 0.00 | 0.00 | 0.00 | 63 | 1011.0 |
| 20260506041249 | 60 | 238 | 13.9 | 26.9 | 0.00 | 0.00 | 0.00 | 63 | 1010.9 |
| 20260506040530 | 60 | 244 | 13.9 | 26.9 | 0.00 | 0.00 | 0.00 | 62 | 1010.8 |
| 20260506040029 | 60 | 226 | 15.6 | 29.5 | 0.00 | 0.00 | 0.00 | 62 | 1010.8 |
| 20260506035530 | 60 | 264 | 14.8 | 29.5 | 0.00 | 0.00 | 0.00 | 62 | 1010.8 |
| 20260506035028 | 60 | 249 | 13.9 | 27.8 | 0.00 | 0.00 | 0.00 | 62 | 1010.9 |
| 20260506034527 | 60 | 238 | 14.8 | 26.9 | 0.00 | 0.00 | 0.00 | 62 | 1010.8 |
| 20260506034029 | 60 | 222 | 13.9 | 29.5 | 0.00 | 0.00 | 0.00 | 61 | 1010.8 |
| 20260506033748 | 60 | 222 | 13.9 | 29.5 | 0.00 | 0.00 | 0.00 | 61 | 1010.9 |
| 20260506033021 | 60 | 258 | 13.9 | 29.5 | 0.00 | 0.00 | 0.00 | 61 | 1010.8 |
| 20260506032736 | 61 | 244 | 14.8 | 26.1 | 0.00 | 0.00 | 0.00 | 61 | 1010.8 |
| 20260506032010 | 61 | 259 | 13.9 | 26.1 | 0.00 | 0.00 | 0.00 | 61 | 1010.8 |
| 20260506031945 | 61 | 242 | 13.0 | 27.8 | 0.00 | 0.00 | 0.00 | 61 | 1010.7 |
| 20260506030958 | 61 | 265 | 12.2 | 27.8 | 0.00 | 0.00 | 0.00 | 61 | 1010.8 |
| 20260506030453 | 60 | 286 | 13.0 | 26.1 | 0.00 | 0.00 | 0.00 | 61 | 1010.8 |
| 20260506025946 | 61 | 257 | 13.9 | 26.1 | 0.00 | 0.00 | 0.00 | 61 | 1010.8 |
| 20260506025702 | 61 | 248 | 13.0 | 27.8 | 0.00 | 0.00 | 0.00 | 60 | 1010.8 |
| 20260506024941 | 61 | 251 | 13.9 | 28.7 | 0.00 | 0.00 | 0.00 | 60 | 1010.8 |
| 20260506024441 | 61 | 246 | 13.9 | 28.7 | 0.00 | 0.00 | 0.00 | 60 | 1010.8 |
| 20260506023939 | 61 | 241 | 13.0 | 25.2 | 0.00 | 0.00 | 0.00 | 60 | 1010.8 |
| 20260506023439 | 61 | 288 | 13.0 | 22.6 | 0.00 | 0.00 | 0.00 | 60 | 1010.8 |
| 20260506022939 | 61 | 266 | 13.0 | 24.3 | 0.00 | 0.00 | 0.00 | 60 | 1010.6 |
| 20260506022439 | 61 | 232 | 13.9 | 26.1 | 0.00 | 0.00 | 0.00 | 60 | 1010.8 |
| 20260506021939 | 61 | 244 | 13.9 | 26.1 | 0.00 | 0.00 | 0.00 | 59 | 1010.7 |
| 20260506021439 | 61 | 242 | 13.9 | 23.5 | 0.00 | 0.00 | 0.00 | 59 | 1010.6 |
| 20260506021205 | 62 | 252 | 14.8 | 25.2 | 0.00 | 0.00 | 0.00 | 59 | 1010.6 |
| 20260506020439 | 62 | 229 | 13.9 | 27.8 | 0.00 | 0.00 | 0.00 | 58 | 1010.5 |
| 20260506020428 | 62 | 274 | 13.9 | 27.8 | 0.00 | 0.00 | 0.00 | 58 | 1010.5 |
| 20260506015439 | 62 | 269 | 13.9 | 26.9 | 0.00 | 0.00 | 0.00 | 58 | 1010.7 |
| 20260506015201 | 62 | 296 | 14.8 | 26.9 | 0.00 | 0.00 | 0.00 | 58 | 1010.5 |
| 20260506014659 | 62 | 245 | 13.9 | 26.1 | 0.00 | 0.00 | 0.00 | 58 | 1010.5 |
| 20260506013939 | 62 | 265 | 13.0 | 24.3 | 0.00 | 0.00 | 0.00 | 58 | 1010.4 |
| 20260506013440 | 61 | 252 | 13.0 | 22.6 | 0.00 | 0.00 | 0.00 | 58 | 1010.4 |
| 20260506013159 | 61 | 251 | 13.0 | 25.2 | 0.00 | 0.00 | 0.00 | 58 | 1010.4 |
| 20260506012428 | 61 | 242 | 13.0 | 25.2 | 0.00 | 0.00 | 0.00 | 58 | 1010.4 |
| 20260506012150 | 61 | 256 | 13.9 | 23.5 | 0.00 | 0.00 | 0.00 | 58 | 1010.3 |
| 20260506011417 | 61 | 226 | 14.8 | 31.3 | 0.00 | 0.00 | 0.00 | 58 | 1010.3 |
| 20260506010909 | 61 | 311 | 13.9 | 31.3 | 0.00 | 0.00 | 0.00 | 58 | 1010.1 |
| 20260506010404 | 61 | 252 | 13.0 | 26.1 | 0.00 | 0.00 | 0.00 | 58 | 1010.2 |
| 20260506005858 | 61 | 279 | 13.0 | 25.2 | 0.00 | 0.00 | 0.00 | 58 | 1010.2 |
| 20260506005353 | 61 | 309 | 13.0 | 25.2 | 0.00 | 0.00 | 0.00 | 58 | 1010.1 |
| 20260506004846 | 61 | 261 | 12.2 | 29.5 | 0.00 | 0.00 | 0.00 | 58 | 1010.1 |
| 20260506004340 | 61 | 259 | 13.0 | 29.5 | 0.00 | 0.00 | 0.00 | 58 | 1010.0 |
| 20260506003834 | 61 | 263 | 13.0 | 24.3 | 0.00 | 0.00 | 0.00 | 59 | 1010.0 |
| 20260506003328 | 61 | 261 | 13.0 | 23.5 | 0.00 | 0.00 | 0.00 | 59 | 1009.6 |
| 20260506002822 | 61 | 260 | 13.0 | 23.5 | 0.00 | 0.00 | 0.00 | 58 | 1009.6 |
| 20260506002537 | 61 | 254 | 13.0 | 28.7 | 0.00 | 0.00 | 0.00 | 58 | 1009.5 |
| 20260506001811 | 61 | 274 | 13.9 | 28.7 | 0.00 | 0.00 | 0.00 | 58 | 1009.4 |
| 20260506001311 | 61 | 336 | 13.9 | 24.3 | 0.00 | 0.00 | 0.00 | 58 | 1009.3 |
| 20260506000811 | 61 | 208 | 13.9 | 32.2 | 0.00 | 0.00 | 0.00 | 59 | 1009.2 |
| 20260506000311 | 61 | 244 | 14.8 | 32.2 | 0.00 | 0.00 | 0.00 | 59 | 1009.2 |
| 20260506000031 | 61 | 225 | 14.8 | 28.7 | 0.00 | 0.00 | 0.00 | 59 | 1009.1 |
| 20260505235311 | 61 | 240 | 13.9 | 27.8 | 0.00 | 0.00 | 0.00 | 59 | 1009.0 |
| 20260505234811 | 60 | 238 | 13.9 | 26.1 | 0.00 | 0.00 | 0.00 | 59 | 1009.0 |
| 20260505234528 | 60 | 249 | 13.0 | 26.9 | 0.00 | 0.00 | 0.00 | 59 | 1009.0 |
| 20260505233810 | 60 | 252 | 14.8 | 26.9 | 0.00 | 0.00 | 0.00 | 59 | 1008.8 |
| 20260505233311 | 60 | 246 | 15.6 | 26.9 | 0.00 | 0.00 | 0.00 | 59 | 1008.8 |
| 20260505232811 | 60 | 234 | 14.8 | 25.2 | 0.00 | 0.00 | 0.00 | 59 | 1008.8 |
| 20260505232313 | 60 | 221 | 13.9 | 25.2 | 0.00 | 0.00 | 0.00 | 59 | 1009.0 |
| 20260505231811 | 61 | 261 | 13.9 | 26.1 | 0.00 | 0.00 | 0.00 | 59 | 1008.9 |
| 20260505231311 | 61 | 244 | 14.8 | 26.1 | 0.00 | 0.00 | 0.00 | 59 | 1008.9 |
| 20260505231032 | 61 | 240 | 14.8 | 26.9 | 0.00 | 0.00 | 0.00 | 59 | 1008.9 |
| 20260505230310 | 61 | 248 | 13.9 | 26.9 | 0.00 | 0.00 | 0.00 | 59 | 1008.7 |
| 20260505230037 | 61 | 253 | 13.9 | 27.8 | 0.00 | 0.00 | 0.00 | 59 | 1008.7 |
| 20260505225306 | 61 | 260 | 14.8 | 27.8 | 0.00 | 0.00 | 0.00 | 59 | 1008.8 |
| 20260505224759 | 61 | 210 | 13.9 | 26.9 | 0.00 | 0.00 | 0.00 | 59 | 1008.7 |
| 20260505224513 | 61 | 248 | 14.8 | 30.4 | 0.00 | 0.00 | 0.00 | 59 | 1008.6 |
| 20260505223748 | 61 | 252 | 14.8 | 30.4 | 0.00 | 0.00 | 0.00 | 58 | 1008.5 |
| 20260505223242 | 61 | 227 | 13.9 | 28.7 | 0.00 | 0.00 | 0.00 | 58 | 1008.6 |
| 20260505222736 | 61 | 255 | 14.8 | 27.8 | 0.00 | 0.00 | 0.00 | 58 | 1008.6 |
| 20260505222233 | 61 | 255 | 14.8 | 27.8 | 0.00 | 0.00 | 0.00 | 59 | 1008.5 |
| 20260505221723 | 61 | 229 | 14.8 | 26.9 | 0.00 | 0.00 | 0.00 | 59 | 1008.4 |
| 20260505221218 | 61 | 230 | 14.8 | 26.9 | 0.00 | 0.00 | 0.00 | 59 | 1008.4 |
| 20260505220712 | 61 | 232 | 13.9 | 24.3 | 0.00 | 0.00 | 0.00 | 59 | 1008.5 |
| 20260505220206 | 61 | 253 | 13.0 | 23.5 | 0.00 | 0.00 | 0.00 | 59 | 1008.4 |
| 20260505215706 | 61 | 252 | 13.0 | 27.8 | 0.00 | 0.00 | 0.00 | 59 | 1008.4 |
| 20260505215205 | 61 | 244 | 13.9 | 27.8 | 0.00 | 0.00 | 0.00 | 58 | 1008.6 |
| 20260505214705 | 61 | 254 | 13.0 | 24.3 | 0.00 | 0.00 | 0.00 | 59 | 1008.5 |
| 20260505214206 | 61 | 257 | 13.9 | 29.5 | 0.00 | 0.00 | 0.00 | 59 | 1008.5 |
| 20260505213705 | 61 | 265 | 13.9 | 29.5 | 0.00 | 0.00 | 0.00 | 59 | 1008.5 |
| 20260505213206 | 61 | 224 | 13.0 | 25.2 | 0.00 | 0.00 | 0.00 | 58 | 1008.5 |
| 20260505212706 | 61 | 223 | 13.9 | 24.3 | 0.00 | 0.00 | 0.00 | 59 | 1008.4 |
| 20260505212205 | 61 | 251 | 14.8 | 24.3 | 0.00 | 0.00 | 0.00 | 58 | 1008.5 |
| 20260505211704 | 61 | 242 | 13.9 | 23.5 | 0.00 | 0.00 | 0.00 | 58 | 1008.5 |
| 20260505211205 | 61 | 184 | 13.9 | 23.5 | 0.00 | 0.00 | 0.00 | 58 | 1008.4 |
| 20260505210709 | 62 | 248 | 13.0 | 22.6 | 0.00 | 0.00 | 0.00 | 58 | 1008.3 |
| 20260505210206 | 62 | 269 | 13.9 | 27.8 | 0.00 | 0.00 | 0.00 | 57 | 1008.4 |
| 20260505205700 | 62 | 249 | 14.8 | 27.8 | 0.00 | 0.00 | 0.00 | 57 | 1008.5 |
| 20260505205202 | 62 | 230 | 13.9 | 25.2 | 0.00 | 0.00 | 0.00 | 57 | 1008.5 |
| 20260505205157 | 63 | 255 | 13.9 | 26.1 | 0.00 | 0.00 | 0.00 | 57 | 1008.5 |
| 20260505204201 | 63 | 258 | 13.9 | 26.1 | 0.00 | 0.00 | 0.00 | 57 | 1008.3 |
| 20260505203700 | 63 | 253 | 13.9 | 25.2 | 0.00 | 0.00 | 0.00 | 56 | 1008.4 |
| 20260505203201 | 63 | 254 | 13.9 | 26.1 | 0.00 | 0.00 | 0.00 | 56 | 1008.4 |
| 20260505202700 | 63 | 240 | 14.8 | 26.1 | 0.00 | 0.00 | 0.00 | 56 | 1008.5 |